Weather History for Pensacola NAS, FL

Change the Weather History Date:

Friday, February 17, 2012

  Actual Average Record
Temperature  
Mean Temperature 62 °F -  
Max Temperature 66 °F 63 °F 136 °F (2004)
Min Temperature 57 °F 45 °F 23 °F (2007)
Degree Days  
Heating Degree Days 4    
Growing Degree Days 12 (Base 50)    
Moisture  
Dew Point 56 °F    
Average Humidity 83    
Maximum Humidity 100    
Minimum Humidity 72    
Precipitation  
Precipitation 0.00 in - - ()
Sea Level Pressure  
Sea Level Pressure 30.06 in    
Wind  
Wind Speed 6 mph (NNE)    
Max Wind Speed 12 mph    
Max Gust Speed -    
Visibility 10 miles    
Events Rain    
Averages and records for this station are not official NWS values.
T = Trace of Precipitation, MM = Missing Value Source: NWS Daily Summary

Daily Weather History Graph

Daily Weather History Graph

Search for Another Location

Airport:

Trip Planner

Search our weather history database for the weather conditions in past years. The results will help you decide how hot, cold, wet, or windy it might be!

Date:

Astronomy

Feb. 17, 2012 Rise Set
Actual Time 6:28 AM CST 5:38 PM CST
Civil Twilight 6:03 AM CST 6:03 PM CST
Nautical Twilight 5:35 AM CST 6:31 PM CST
Astronomical Twilight 5:07 AM CST 6:59 PM CST
Moon 3:06 AM CST 1:43 PM CST
Length of Visible Light 11h 59m
Length of Day
11h 10m
Waning Crescent, 19% of the Moon is Illuminated
Feb 17
Waning Crescent
Feb 21
New
Feb 29
First Quarter
Mar 8
Full
Mar 14
Last Quarter

Hourly Weather History & Observations

Time (CST) Temp. Dew Point Humidity Pressure Visibility Wind Dir Wind Speed Gust Speed Precip Events Conditions
12:56 AM 63.0 °F 54.0 °F 72% 30.08 in 10.0 mi NNE 6.9 mph - N/A   Overcast
1:56 AM 62.1 °F 54.0 °F 75% 30.03 in 10.0 mi NNE 11.5 mph - N/A   Overcast
2:56 AM 61.0 °F 54.0 °F 78% 30.02 in 10.0 mi NNE 9.2 mph - N/A   Overcast
3:56 AM 60.1 °F 54.0 °F 80% 30.06 in 10.0 mi NNW 5.8 mph - N/A   Overcast
4:56 AM 59.0 °F 53.1 °F 81% 30.07 in 10.0 mi NNW 4.6 mph - 0.00 in   Overcast
5:56 AM 59.0 °F 53.1 °F 81% 30.08 in 10.0 mi North 8.1 mph - 0.00 in Rain Light Rain
6:13 AM 57.2 °F 53.6 °F 88% 30.07 in 10.0 mi North 6.9 mph - 0.00 in Rain Light Rain
6:48 AM 57.2 °F 53.6 °F 88% 30.07 in 10.0 mi NNE 6.9 mph - 0.00 in   Overcast
6:56 AM 57.9 °F 54.0 °F 87% 30.07 in 10.0 mi NNE 6.9 mph - 0.00 in   Overcast
7:01 AM 57.2 °F 53.6 °F 88% 30.06 in 10.0 mi NE 8.1 mph - N/A   Overcast
7:56 AM 59.0 °F 54.0 °F 83% 30.09 in 10.0 mi North 6.9 mph - N/A   Overcast
8:56 AM 61.0 °F 54.0 °F 78% 30.10 in 10.0 mi NNE 5.8 mph - N/A   Overcast
9:37 AM 62.6 °F 55.4 °F 77% 30.11 in 10.0 mi NNE 5.8 mph - N/A   Overcast
9:51 AM 62.6 °F 55.4 °F 77% 30.11 in 10.0 mi NNE 5.8 mph - N/A   Overcast
9:56 AM 62.1 °F 54.0 °F 75% 30.12 in 10.0 mi North 4.6 mph - N/A   Overcast
10:56 AM 62.1 °F 55.0 °F 78% 30.11 in 10.0 mi North 5.8 mph - N/A   Overcast
11:11 AM 62.6 °F 55.4 °F 77% 30.10 in 10.0 mi North 6.9 mph - N/A   Overcast
11:56 AM 62.1 °F 55.0 °F 78% 30.09 in 10.0 mi ENE 4.6 mph - N/A   Overcast
12:10 PM 62.6 °F 55.4 °F 77% 30.08 in 10.0 mi ENE 4.6 mph - N/A   Overcast
12:56 PM 62.1 °F 55.9 °F 80% 30.05 in 10.0 mi ENE 6.9 mph - N/A   Overcast
1:56 PM 64.9 °F 57.9 °F 78% 30.03 in 10.0 mi NNE 3.5 mph - N/A   Mostly Cloudy
2:56 PM 66.0 °F 59.0 °F 78% 30.02 in 10.0 mi ENE 3.5 mph - N/A   Mostly Cloudy
3:56 PM 66.9 °F 57.9 °F 73% 30.02 in 10.0 mi ESE 3.5 mph - N/A   Mostly Cloudy
4:56 PM 64.0 °F 57.0 °F 78% 30.03 in 10.0 mi SE 4.6 mph - N/A   Mostly Cloudy
5:56 PM 61.0 °F 57.9 °F 90% 30.02 in 10.0 mi Calm Calm - N/A   Mostly Cloudy
6:56 PM 60.1 °F 57.9 °F 93% 30.02 in 10.0 mi Calm Calm - N/A   Mostly Cloudy
7:56 PM 57.9 °F 57.9 °F 100% 30.03 in 10.0 mi Calm Calm - N/A   Mostly Cloudy
8:56 PM 59.0 °F 57.9 °F 96% 30.04 in 9.0 mi Calm Calm - N/A   Mostly Cloudy
9:56 PM 57.9 °F 57.0 °F 97% 30.04 in 6.0 mi Calm Calm - N/A   Mostly Cloudy
10:56 PM 59.0 °F 59.0 °F 100% 30.05 in 7.0 mi Calm Calm - N/A   Overcast
11:56 PM 59.0 °F 59.0 °F 100% 30.02 in 6.0 mi ENE 3.5 mph - N/A   Overcast